[[{"header":{"parameterUnit":"m.s-1","parameterCategory":1,"la1":30.2991,"la2":30.254,"lo1":-89.0895,"lo2":-89.0444,"dy":0.0017,"dx":0.0017,"nx":28,"ny":28,"refTime":"2024-07-21T21:00:00:Z","depth":0,"parameterNumber":2,"parameterNumberName":"U-component_of_WINDS"},"data":[0,0,0,0,0,0,0,0,0,0,0,0,0,0,0,0,0,0,0,0,0,0,0,0,0,0,0,0,0,0,0,0,0,0,0,0,0,0,0,0,0,0,0,0,0,0,0,0,0,0,0,0,0,0,0,0,0,0,4.1112,4.1111,0,4.1017,4.1016,4.1015,4.0863,4.086,4.0857,4.0855,4.0759,4.0759,4.0759,0,0,0,0,0,0,0,0,0,0,0,0,0,4.1161,4.1161,4.1112,4.1111,4.111,4.1017,4.1016,4.1014,4.0863,4.086,4.0856,4.0853,4.0759,4.0759,4.0759,0,0,0,0,0,0,0,0,0,0,0,0,0,4.111,4.1161,4.1112,4.1023,4.1014,4.1017,4.1016,4.1014,4.0864,4.086,4.0856,4.0852,4.0759,4.0759,4.0759,4.0843,0,0,4.0759,4.0759,0,0,0,0,0,0,0,0,4.1113,4.1109,4.1037,4.1029,4.1019,4.0947,4.0998,4.0957,4.0865,4.0921,4.0854,4.085,4.0825,4.082,4.0811,4.0838,4.0834,4.0759,4.0759,4.0759,4.0759,0,0,0,0,0,0,0,4.1117,4.1112,4.1074,4.1036,4.1025,4.0987,4.0975,4.0989,4.0898,4.0916,4.0905,4.0895,4.0819,4.0811,4.0808,4.0833,4.0759,4.0759,4.0759,4.0759,4.0917,4.0921,0,0,0,0,0,0,4.1134,4.1116,4.1077,4.1072,4.1057,4.099,4.0976,4.0975,4.0897,4.0881,4.0899,4.0889,4.0813,4.0808,4.0804,4.0891,4.0759,4.0759,4.076,4.0913,4.0918,4.0922,0,0,0,0,0,0,4.1135,4.1132,4.1081,4.109,4.1081,4.0993,4.0992,4.0975,4.0966,4.0884,4.0867,4.0907,4.081,4.0804,4.0832,4.0886,4.076,4.076,4.0908,4.0914,4.092,4.1071,0,0,0,0,0,0,4.1137,4.1133,4.1165,4.1092,4.1081,4.1113,4.0996,4.0976,4.0967,4.0952,4.0888,4.0873,4.0806,4.0833,4.0833,4.0884,4.076,4.0903,4.0911,4.0918,4.1061,4.1082,4.11,0,0,0,0,0,4.114,4.1213,4.1167,4.1164,4.1119,4.1116,4.111,4.1031,4.0972,4.1002,4.0948,4.0875,4.0881,4.0837,4.0835,4.0888,4.0899,4.0908,4.0917,4.1052,4.1078,4.1099,0,0,0,0,0,0,4.1296,4.1202,4.115,4.1203,4.1168,4.1091,4.1127,4.1061,4.1044,4.1031,4.0934,4.092,4.0961,4.0927,4.0881,4.0961,4.0878,4.0888,4.0982,4.1005,4.1024,4.103,4.076,0,0,0,0,0,4.1337,4.1343,4.126,4.1314,4.1299,4.1216,4.1212,4.1154,4.1115,4.11,4.1048,4.1013,4.1006,4.1004,4.0994,4.1056,4.1037,4.109,4.111,4.1126,4.1135,4.116,4.1181,4.0953,4.0953,4.0953,0,0,4.1421,4.137,4.138,4.1344,4.1311,4.1317,4.1205,4.1219,4.1222,4.1102,4.1124,4.1086,4.104,4.1084,4.1101,4.1057,4.1193,4.1138,4.1152,4.1151,4.1171,4.1193,4.1212,4.0959,4.0958,4.0957,0,0,4.1576,4.154,4.1578,4.1546,4.1496,4.1439,4.1449,4.138,4.1348,4.137,4.1278,4.128,4.1273,4.1241,4.1225,4.1364,4.1294,4.1363,4.1464,4.1489,4.1507,4.1523,4.1568,4.1586,4.1373,4.1373,4.1373,0,4.1687,4.1694,4.1607,4.1624,4.1609,4.1499,4.1535,4.1508,4.1458,4.145,4.1401,4.1384,4.1347,4.1379,4.1413,4.1405,4.141,4.137,4.1512,4.1526,4.1539,4.1581,4.1599,4.1381,4.1381,4.138,4.1379,0,4.183,4.1836,4.1873,4.1824,4.1813,4.1841,4.1756,4.1756,4.1698,4.1646,4.1666,4.1615,4.159,4.1594,4.1539,4.1618,4.1592,4.153,4.1443,4.1571,4.1608,4.1624,4.1394,4.1391,4.1388,4.1386,0,0,4.2083,4.1983,4.1998,4.1972,4.1906,4.1909,4.1929,4.1903,4.1903,4.1871,4.1884,4.1877,4.1816,4.1798,4.1737,4.176,4.1867,4.1693,4.1691,4.1724,4.1946,4.1992,4.2012,4.1821,4.1824,4.1826,4.1948,0,4.2223,4.2252,4.2172,4.2221,4.2222,4.2115,4.2132,4.2093,4.2045,4.2038,4.1984,4.1979,4.1902,4.1889,4.1907,4.1851,4.191,4.1841,4.183,4.183,4.1842,4.2032,4.2082,4.22,4.1963,4.1966,4.1968,0,4.2391,4.2364,4.2413,4.2339,4.2337,4.2354,4.232,4.2317,4.2268,4.2231,4.2208,4.2136,4.2148,4.2067,4.2081,4.2036,4.2026,4.1998,4.2,4.1994,4.1905,4.2028,4.2236,4.2252,4.1991,4.1989,4.1987,0,4.2566,4.2543,4.2567,4.2549,4.2465,4.2478,4.2444,4.2392,4.2379,4.2351,4.2341,4.2315,4.23,4.228,4.2202,4.2151,4.2224,4.2138,4.2191,4.2193,4.221,4.2209,4.2416,4.2209,4.2209,4.2209,4.2208,0,4.2729,4.2761,4.2643,4.2658,4.269,4.2597,4.2631,4.2586,4.254,4.2542,4.2449,4.2454,4.2352,4.2344,4.2283,4.2301,4.2297,4.2265,4.2247,4.2271,4.2275,4.2262,4.2251,4.2213,4.2212,4.2211,4.2211,0,4.293,4.2852,4.2871,4.2788,4.2768,4.2795,4.2724,4.2733,4.2677,4.2681,4.2676,4.2589,4.2574,4.2494,4.2463,4.2421,4.246,4.2428,4.2476,4.2464,4.252,4.2515,4.2723,4.2744,4.2528,4.253,4.2532,0,4.3037,4.3059,4.2978,4.2972,4.2941,4.2935,4.292,4.2828,4.2817,4.2761,4.2776,4.2754,4.2731,4.2712,4.2645,4.2619,4.2583,4.2658,4.2579,4.26,4.258,4.2578,4.2578,4.2675,4.2678,4.268,4.2682,0,4.3236,4.3195,4.3178,4.3146,4.3131,4.3102,4.3067,4.3068,4.2966,4.2957,4.294,4.2922,4.2887,4.2865,4.2826,4.2789,4.2718,4.2707,4.2717,4.2741,4.2766,4.2748,4.2518,4.2703,4.27,4.2699,4.2698,4.2697,4.339,4.3403,4.3346,4.3329,4.3292,4.3261,4.3263,4.3206,4.319,4.3153,4.31,4.3089,4.3035,4.2976,4.2944,4.2933,4.2893,4.2909,4.2912,4.2917,4.2927,4.2769,4.2926,4.2926,4.2925,4.2924,4.2924,0,4.358,4.3538,4.3523,4.3475,4.346,4.3393,4.335,4.3342,4.3333,4.3289,4.3267,4.3245,4.3221,4.3151,4.312,4.3124,4.309,4.3119,4.3116,4.3107,4.2967,4.296,4.3146,4.3146,4.3146,4.3146,4.3146,4.3146,4.3678,4.3693,4.3645,4.3641,4.3597,4.3585,4.3565,4.3534,4.3498,4.3477,4.3456,4.341,4.3354,4.3317,4.3291,4.3271,4.3262,4.3301,4.327,4.314,4.3118,4.3098,4.309,4.3301,4.3301,4.341,4.3411,4.3412]},{"header":{"parameterUnit":"m.s-1","parameterCategory":1,"la1":30.2991,"la2":30.254,"lo1":-89.0895,"lo2":-89.0444,"dy":0.0017,"dx":0.0017,"nx":28,"ny":28,"refTime":"2024-07-21T21:00:00:Z","depth":0,"parameterNumber":3,"parameterNumberName":"V-component_of_WINDS"},"data":[0,0,0,0,0,0,0,0,0,0,0,0,0,0,0,0,0,0,0,0,0,0,0,0,0,0,0,0,0,0,0,0,0,0,0,0,0,0,0,0,0,0,0,0,0,0,0,0,0,0,0,0,0,0,0,0,0,0,1.8271,1.8272,0,1.8361,1.8362,1.8363,1.8393,1.8392,1.8392,1.8392,1.8484,1.8487,1.8489,0,0,0,0,0,0,0,0,0,0,0,0,0,1.8122,1.8125,1.827,1.8272,1.8273,1.8361,1.8362,1.8363,1.8393,1.8392,1.8392,1.8391,1.8483,1.8486,1.849,0,0,0,0,0,0,0,0,0,0,0,0,0,1.8197,1.8126,1.827,1.8298,1.8302,1.836,1.8362,1.8363,1.8393,1.8392,1.8392,1.8391,1.8482,1.8486,1.849,1.8528,0,0,1.8503,1.8505,0,0,0,0,0,0,0,0,1.8193,1.8202,1.8293,1.8296,1.83,1.8365,1.8344,1.8419,1.8393,1.8358,1.8392,1.8391,1.8445,1.8452,1.847,1.8532,1.8536,1.8503,1.8506,1.8508,1.8509,0,0,0,0,0,0,0,1.8187,1.8199,1.8306,1.8294,1.8299,1.8306,1.8316,1.8358,1.8404,1.8361,1.8364,1.8374,1.8447,1.8466,1.8473,1.8537,1.8503,1.8507,1.851,1.8511,1.8632,1.8633,0,0,0,0,0,0,1.8178,1.8194,1.8303,1.8309,1.8244,1.8309,1.832,1.8345,1.8403,1.8412,1.8374,1.8375,1.8459,1.8468,1.8476,1.8523,1.8508,1.8512,1.8514,1.8632,1.8633,1.8633,0,0,0,0,0,0,1.8174,1.8187,1.83,1.8252,1.8267,1.8312,1.834,1.8347,1.8366,1.8413,1.8421,1.8386,1.8459,1.847,1.8514,1.8526,1.8514,1.8517,1.8631,1.8632,1.8633,1.8617,0,0,0,0,0,0,1.817,1.8186,1.8201,1.8252,1.8269,1.8337,1.834,1.8349,1.8374,1.8375,1.8426,1.8434,1.8459,1.8508,1.8518,1.8532,1.8521,1.863,1.8631,1.8633,1.8617,1.8617,1.8618,0,0,0,0,0,1.8165,1.8194,1.8202,1.8215,1.829,1.8338,1.8348,1.8376,1.8374,1.839,1.8419,1.8432,1.8523,1.8512,1.8524,1.8539,1.8629,1.8631,1.8632,1.8616,1.8617,1.8618,0,0,0,0,0,0,1.8144,1.8201,1.8211,1.8257,1.8292,1.8343,1.8363,1.8376,1.8413,1.8413,1.8447,1.8458,1.8499,1.8524,1.851,1.8578,1.8577,1.8581,1.856,1.8561,1.8562,1.8555,1.8524,0,0,0,0,0,1.8144,1.8178,1.8227,1.8263,1.828,1.8318,1.834,1.8359,1.8397,1.8412,1.8445,1.8481,1.8517,1.8541,1.8577,1.862,1.8631,1.8636,1.8637,1.8637,1.864,1.8663,1.8665,1.8638,1.8638,1.8638,0,0,1.8146,1.8182,1.8201,1.826,1.8289,1.8323,1.8331,1.8367,1.8393,1.8418,1.8461,1.8486,1.8528,1.8571,1.8592,1.8593,1.865,1.8639,1.8639,1.8642,1.8665,1.8667,1.8669,1.8639,1.8639,1.8639,0,0,1.8167,1.8198,1.823,1.8259,1.8303,1.8328,1.8336,1.8384,1.8401,1.8445,1.8464,1.8494,1.8557,1.8586,1.8608,1.8637,1.865,1.8648,1.8651,1.8673,1.8675,1.8677,1.8686,1.8689,1.8651,1.8651,1.8651,0,1.8164,1.8216,1.8246,1.828,1.8305,1.8328,1.8361,1.8387,1.8441,1.8457,1.8457,1.8534,1.8564,1.8614,1.862,1.8638,1.8647,1.8643,1.8673,1.8675,1.8677,1.8686,1.869,1.865,1.865,1.865,1.865,0,1.821,1.8246,1.8267,1.8317,1.8344,1.8377,1.8411,1.8434,1.845,1.8474,1.8517,1.8554,1.8597,1.861,1.8627,1.8661,1.866,1.8666,1.8666,1.8679,1.8688,1.8692,1.8649,1.8649,1.865,1.865,0,0,1.8221,1.8286,1.8293,1.8315,1.8364,1.8392,1.8426,1.8468,1.8486,1.8522,1.8551,1.8602,1.8606,1.8632,1.8651,1.867,1.8689,1.8674,1.8675,1.8675,1.8728,1.8723,1.8727,1.8697,1.8698,1.8699,1.8724,0,1.8248,1.831,1.8336,1.8385,1.8418,1.8439,1.8468,1.8501,1.8524,1.8554,1.858,1.8615,1.862,1.8635,1.8655,1.8683,1.87,1.8681,1.8724,1.8725,1.8712,1.8732,1.8728,1.875,1.8728,1.8729,1.8729,0,1.8288,1.8322,1.8375,1.8418,1.8433,1.8458,1.8498,1.8527,1.8564,1.8579,1.8606,1.8624,1.8659,1.8656,1.8704,1.8691,1.8709,1.8725,1.8727,1.8732,1.8728,1.8737,1.8758,1.8761,1.8735,1.8735,1.8734,0,1.829,1.835,1.8388,1.8407,1.8458,1.8476,1.8498,1.8534,1.8557,1.8591,1.8606,1.8643,1.8664,1.8692,1.8719,1.8715,1.8764,1.8764,1.8777,1.8776,1.8787,1.8786,1.8811,1.8799,1.8799,1.8799,1.8799,0,1.8317,1.8348,1.8389,1.8413,1.8448,1.8477,1.851,1.8534,1.8565,1.8593,1.8614,1.864,1.8674,1.8704,1.8725,1.8761,1.877,1.8783,1.8788,1.8781,1.8779,1.8794,1.8793,1.88,1.88,1.88,1.8799,0,1.8325,1.8355,1.8398,1.8442,1.8454,1.8478,1.8516,1.8539,1.8562,1.8597,1.8607,1.8643,1.8679,1.8709,1.8756,1.877,1.8807,1.8813,1.8795,1.8797,1.8809,1.8807,1.8844,1.8849,1.8834,1.8834,1.8834,0,1.834,1.8364,1.8411,1.8431,1.8453,1.8485,1.8508,1.8537,1.8559,1.8602,1.862,1.8657,1.8688,1.8744,1.8774,1.881,1.8817,1.8827,1.8823,1.8814,1.8816,1.8814,1.8816,1.8828,1.8828,1.8828,1.8828,0,1.8364,1.8377,1.8409,1.8445,1.8472,1.8502,1.8533,1.8548,1.8582,1.8607,1.8643,1.8667,1.8715,1.8751,1.8789,1.8812,1.8825,1.8829,1.8834,1.8827,1.8815,1.882,1.8795,1.8828,1.8828,1.8828,1.8828,1.8828,1.8376,1.8398,1.8433,1.8468,1.8494,1.8521,1.8545,1.857,1.8601,1.8642,1.8657,1.8694,1.8728,1.8781,1.8803,1.8832,1.8834,1.8841,1.8843,1.8844,1.8843,1.881,1.8839,1.8839,1.8839,1.8839,1.8839,0,1.84,1.8423,1.8455,1.8496,1.8523,1.8533,1.8567,1.8589,1.8621,1.8652,1.8682,1.8722,1.8757,1.8789,1.8825,1.8842,1.8849,1.885,1.885,1.8854,1.884,1.8831,1.8844,1.8844,1.8844,1.8844,1.8844,1.8844,1.8415,1.8452,1.8469,1.8518,1.8541,1.8577,1.8596,1.8621,1.8645,1.869,1.8719,1.8739,1.877,1.8808,1.884,1.8849,1.8861,1.886,1.887,1.8856,1.8855,1.8855,1.8847,1.8863,1.8863,1.8882,1.8883,1.8883]}]]